Home   Weather   Erkelenz   Past weeks

Flag for Germany Past Weather in Erkelenz, North Rhine-Westphalia, Germany — Yesterday and Last 2 Weeks

Now
64 °F

Passing clouds.


Feels Like: 64 °F
Forecast: 47 / 52 °F
Wind: 12 mph from Southeast

Location: Monchengladbach Airport

Current Time: Apr 30, 2017 at 10:49:46 pm

Latest Report: Apr 30, 2017 at 7:50 pm


Visibility: N/A

Pressure: 29.68 "Hg

Humidity: 30%

Dew Point: 32 °F

Location of ErkelenzLocation

Past Weather in Erkelenz — Graph

°F

Erkelenz Temperature Yesterday

Maximum temperature yesterday: 55 °F (at 4:20 pm)
Minimum temperature yesterday: 41 °F (at 7:50 am)
Average temperature yesterday: 51 °F

High & Low Weather Summary for the Past Weeks

 TemperatureHumidityPressure
High66 °F (Apr 30, 4:20 pm)100% (Apr 17, 7:50 am)30.63 "Hg (Apr 17, 7:50 am)
Low30 °F (Apr 20, 7:50 am)28% (Apr 30, 5:20 pm)29.68 "Hg (Apr 30, 6:50 pm)
Average49 °F55%30.13 "Hg
* Reported Apr 15 7:20 pm — Apr 30 7:50 pm, Erkelenz, Weather by CustomWeather, © 2017

Note: Actual official high and low records may vary slightly from our data, if they occured in-between our weather recording intervals... More about our weather records

Advertising

Erkelenz Weather History for the Previous 24 Hours

Scroll right to see more
 ConditionsComfort  
Time TempWeatherWind HumidityBarometerVisibility
7:50 pm
Sun, Apr 30
64 °FPassing clouds.12 mph30%29.68 "HgN/A
7:20 pm64 °FClear.17 mph30%29.68 "Hg10 mi
6:50 pm64 °FPassing clouds.13 mph32%29.68 "HgN/A
6:20 pm64 °FPassing clouds.14 mph34%29.71 "HgN/A
5:50 pm64 °FPassing clouds.16 mph34%29.71 "HgN/A
5:20 pm66 °FPassing clouds.13 mph28%29.74 "HgN/A
4:50 pm66 °FPassing clouds.15 mph30%29.74 "HgN/A
4:20 pm66 °FPassing clouds.13 mph32%29.74 "HgN/A
3:50 pm64 °FPassing clouds.18 mph30%29.77 "HgN/A
3:20 pm64 °FPassing clouds.16 mph32%29.77 "HgN/A
2:50 pm64 °FClear.18 mph32%29.80 "Hg10 mi
2:20 pm63 °FPassing clouds.21 mph37%29.80 "HgN/A
1:50 pm63 °FClear.22 mph34%29.80 "Hg10 mi
1:20 pm63 °FClear.20 mph34%29.83 "Hg10 mi
12:50 pm61 °FClear.17 mph36%29.83 "Hg10 mi
12:20 pm61 °FPassing clouds.18 mph36%29.86 "HgN/A
11:50 am59 °FPassing clouds.15 mph36%29.86 "HgN/A
11:20 am59 °FSunny.13 mph39%29.89 "Hg10 mi
10:50 am55 °FPassing clouds.12 mph44%29.89 "HgN/A
10:20 am54 °FPassing clouds.12 mph47%29.92 "HgN/A
9:20 am50 °FSunny.12 mph50%29.92 "Hg10 mi
8:50 am48 °FSunny.13 mph54%29.95 "Hg10 mi
8:20 am46 °FSunny.10 mph57%29.95 "Hg10 mi
Weather by CustomWeather, © 2017

See weather overviewHow to use our weather pages